Hill City, KS

10:55 AM CDT on April 23, 2017 (GMT -0500)
Hill City Municipal

Weather History for KHLC - October, 2011

Change the Weather History Date:

Tuesday, October 18, 2011

  Actual Average Record
Temperature  
Mean Temperature 47 °F 53 °F  
Max Temperature 58 °F 67 °F 93 °F (2003)
Min Temperature 36 °F 39 °F 26 °F (1948)
Degree Days  
Heating Degree Days 18    
Moisture  
Dew Point 32 °F    
Average Humidity 63    
Maximum Humidity 93    
Minimum Humidity 29    
Precipitation  
Precipitation 0.00 in 0.05 in 0.26 in (2013)
Month to date precipitation 2.24 0.96  
Year to date precipitation 19.05 20.72  
Sea Level Pressure  
Sea Level Pressure 30.21 in    
Wind  
Wind Speed 13 mph (NW)    
Max Wind Speed 26 mph    
Max Gust Speed 39 mph    
Visibility 10 miles    
Events      
T = Trace of Precipitation, MM = Missing Value Source: NWS Daily Summary

Daily Weather History Graph

Daily Weather History Graph

Search for Another Location

Airport or City:

Trip Planner

Search our weather history database for the weather conditions in past years. The results will help you decide how hot, cold, wet, or windy it might be!

Date:

Astronomy

Oct. 18, 2011 Rise Set
Actual Time 7:52 AM CDT 6:56 PM CDT
Civil Twilight 7:24 AM CDT 7:23 PM CDT
Nautical Twilight 6:53 AM CDT 7:54 PM CDT
Astronomical Twilight 6:22 AM CDT 8:25 PM CDT
Moon 11:40 PM CDT (10/18) 1:43 PM CDT (10/18)
Length of Visible Light 11h 58m
Length of Day
11h 04m
Waning Gibbous, 64% of the Moon is Illuminated
Oct 18
Waning Gibbous
Oct 19
Last Quarter
Oct 26
New
Nov 2
First Quarter
Nov 10
Full

Hourly Weather History & Observations

Time (CDT) Temp. Windchill Dew Point Humidity Pressure Visibility Wind Dir Wind Speed Gust Speed Precip Events Conditions
12:53 AM 41.0 °F 38.0 °F 39.0 °F 93% 30.18 in 10.0 mi West 4.6 mph - N/A   Clear
1:53 AM 41.0 °F 35.8 °F 37.9 °F 89% 30.17 in 10.0 mi WNW 8.1 mph - N/A   Clear
2:53 AM 41.0 °F 33.9 °F 37.9 °F 89% 30.16 in 10.0 mi NW 12.7 mph - N/A   Clear
3:53 AM 41.0 °F 33.5 °F 36.0 °F 82% 30.16 in 10.0 mi NW 13.8 mph - N/A   Clear
4:53 AM 39.9 °F 32.5 °F 35.1 °F 83% 30.17 in 10.0 mi NW 12.7 mph - N/A   Clear
5:53 AM 39.9 °F 32.1 °F 35.1 °F 83% 30.20 in 10.0 mi NW 13.8 mph - N/A   Clear
6:53 AM 39.9 °F 32.5 °F 34.0 °F 79% 30.21 in 10.0 mi NW 12.7 mph - N/A   Clear
8:53 AM 42.1 °F 33.9 °F 33.1 °F 70% 30.25 in 10.0 mi NNW 17.3 mph 26.5 mph N/A   Clear
9:53 AM 45.0 °F 37.1 °F 34.0 °F 65% 30.27 in 10.0 mi NNW 19.6 mph - N/A   Clear
10:53 AM 48.0 °F - 34.0 °F 58% 30.27 in 10.0 mi NNW 23.0 mph 29.9 mph N/A   Clear
11:53 AM 50.0 °F - 33.1 °F 52% 30.26 in 10.0 mi NNW 20.7 mph 33.4 mph N/A   Clear
12:53 PM 52.0 °F - 33.1 °F 49% 30.25 in 10.0 mi North 21.9 mph 29.9 mph N/A   Clear
1:53 PM 55.0 °F - 32.0 °F 42% 30.22 in 10.0 mi NNW 25.3 mph 33.4 mph N/A   Clear
2:53 PM 57.0 °F - 30.9 °F 37% 30.20 in 10.0 mi North 25.3 mph 39.1 mph N/A   Clear
3:53 PM 57.0 °F - 28.0 °F 33% 30.20 in 10.0 mi North 26.5 mph 35.7 mph N/A   Clear
4:53 PM 57.0 °F - 25.0 °F 29% 30.19 in 10.0 mi North 21.9 mph 31.1 mph N/A   Clear
5:53 PM 57.0 °F - 26.1 °F 30% 30.19 in 10.0 mi North 19.6 mph 27.6 mph N/A   Clear
6:53 PM 52.0 °F - 28.0 °F 40% 30.20 in 10.0 mi North 6.9 mph - N/A   Clear
8:53 PM 39.0 °F 36.8 °F 30.9 °F 73% 30.21 in 10.0 mi West 3.5 mph - N/A   Clear
9:53 PM 37.9 °F 33.5 °F 30.0 °F 73% 30.21 in 10.0 mi West 5.8 mph - N/A   Clear
10:53 PM 37.9 °F 32.7 °F 28.9 °F 70% 30.20 in 10.0 mi West 6.9 mph - N/A   Clear
11:53 PM 36.0 °F 29.6 °F 28.9 °F 76% 30.19 in 10.0 mi West 8.1 mph - N/A   Clear